Showing default

FORMOSAT7-2/COSMIC2-2, 44351

Orbit data source: Space-Track

FORMOSAT7-2/COSMIC2-2, 44351 is a payload satellite owned by NSPO (TW) in LEO that was launched on Tue, 25 Jun 2019 UTC via an FALCON HEAVY launch vehicle from the Air Force Eastern Test Range (AFETR). Payload-class satellites include a variety of spacecraft equipped with specific instruments for various scientific and technological missions. These include communications satellites like Starlink; space stations such as the ISS; scientific satellites like the Hubble; Earth observation satellites from companies like Planet Labs, Umbra, and HawkEye 360; GPS; miniature CubeSats for education and research; and military/defense satellites.

Not visible in the next 10 days
Identifier
44351, 2019-036N
Orbit
LEO
Country
Flag of TWTW / TWN
Related business
Manufacturer
SSTL (Astrium)
Mission
Operational Civil Weather
Bus & Motor
SSTL-100, Unknown motor
Mass
278 kg wet, 278 kg dry
Launch date (UTC)
2019-06-25 (6 years ago)
Launch vehicle
FALCON HEAVY
Launch site
Air Force Eastern Test Range (AFETR)
Object type
Payload
Rocket body
Debris
Shape & HBR
Box + 1 Pan, 1.5 m
Radar Cross Section
2.189 m², Large (>1 m²)

Expand to show TLE details & history
Last TLE update: 8 hours ago

TLE from 8 hours ago
0 FORMOSAT7-2/COSMIC2-2
1 44351U 19036N   25286.93445361  .00005139  00000-0  40120-3 0  9992
2 44351  23.9999  10.2796 0000737 357.4568   2.5929 14.97816617346640
Epoch: 2025-10-13T22:25Z
TLE epoch observation values (Epoch: 2025-10-13T22:25:36.791Z)
Latitude
-0.00003°
Longitude
11.14612°
Altitude
571.021 km
Speed
7.578 km/s
True Right ascension
00h 41m 07s
True Declination
0° 00' 00"
Sunlit
Object was in full shadow at epoch
Visualization orbit readout
Latitude
Unknown
Longitude
Unknown
Altitude
Unknown
Speed
Unknown
Apparent Right ascension
Unknown
Apparent Declination
Unknown
Sunlit
N/A
Visualization observer readout
Local Sidereal Time
01:26:15
Azimuth
Unknown
Elevation
Unknown
Doppler factor
Unknown
Orbital elements
Apogee altitude
578.927 km
Perigee altitude
577.901 km
Semi-major axis
6,956.551 km
Eccentricity
0.00007
Inclination
23.9999°
RAAN
10.2796°
Arg. of periapsis
357.4568°
True anomaly
2.59328°
Mean anomaly
2.5929°
Eccentric anomaly
2.59309°
Mean motion
3.74069 °/min
Orbital period
96.24 mins
BSTAR
0.0004012
Loading maneuver chart data...
Computing Atmospheric mass density...
Loading historical data...
Loading historical data...
Loading historical data...
Loading historical data...
Loading historical data...
Loading historical data...
Loading historical data...

Documentation

Showing up to 5 results
|